Weather in Danville

United States     36°35′09″N   79°23′43″W
temp.,
°C
wind,
m/s
gust,
m/s
humid.,
%
clouds,
%
prec.,
mm/h
press.,
hPa
HPBL,
m
20 may, fri
fri2023:00+22n117747 0.0 101019
02:00+20w118499 0.1 101011
05:00+18ssw118791 0.2 101016
08:00+22sw412786 0.2 1012400
11:00+30wsw611476 0.0 10131192
14:00+35sw69330 0.0 10122068
17:00+35sw68310 0.0 10122260
20:00+27ssw37617 0.0 1013123
21 may, sat
sat2123:00+25sw415535 0.0 1015489
02:00+21ssw3116469 0.0 1016249
05:00+19sw2117994 0.0 1017270
08:00+22sw3107797 0.0 1020353
11:00+30sw365075 0.0 1020893
14:00+34s46350 0.0 10182528
17:00+33s56375 0.0 10172257
20:00+23sw51279100 1.9 1019399
22 may, sun
sun2223:00+20sw2293100 3.2 102228
02:00+18wsw129599 3.2 102119
05:00+18s2796100 0.0 1020195
08:00+20sw369098 0.0 1021278
11:00+27sw34597 0.0 10201028
14:00+32wsw333914 0.0 10182413
17:00+31wnw654399 0.1 10161413
20:00+22wsw5117395 0.9 1018232
23 may, mon
mon2323:00+19sse479270 0.2 1019182
02:00+18wnw249420 0.3 101878
05:00+18nne279897 0.3 1018189
08:00+19ne3896100 0.6 1020467
11:00+21ne5776100 0.8 1021742
14:00+23ne4564100 1.4 10201217
17:00+19nne6870100 0.3 1020599
20:00+14ne41295100 1.5 1022458
24 may, tue
tue2423:00+14ne31197100 0.8 1023525
02:00+13nne3995100 0.8 1022442
05:00+13nne2795100 0.0 1021326
08:00+14ne288999 0.0 1023418
11:00+15ne3776100 0.0 1024448
14:00+16ene3576100 0.0 1023492
17:00+18ne3473100 0.0 1021651
20:00+17ne2384100 0.0 1021198